SPACEMOBILE-SSR04 DEB, 62372

Orbit data source: Space-Track

SPACEMOBILE-SSR04 DEB, 62372 is space debris in LEO originally from a launch on Thu, 12 Sep 2024 UTC launched from the Air Force Eastern Test Range (AFETR). Debris objects in space refer to the collection of defunct objects orbiting the Earth. Examples of debris include non-operational satellites, rocket bodies, and fragments generated from explosions, collisions, or faulty payload assembly.

Loading next visibility...
Identifier
62372, 2024-163J
Orbit
LEO
Country
Flag of USUS
Related business
Manufacturer
AST & Science
Mission
Spacecraft
Bus & Motor
BW3 LVA, Unknown motor
Mass
150 kg wet, 150 kg dry
Launch date (UTC)
2024-09-12 (1 year ago)
Launch vehicle
Unknown
Launch site
Air Force Eastern Test Range (AFETR)
Object type
Payload
Rocket body
Debris
Shape & HBR
Cyl, 3.8 m
Radar Cross Section
1.963 m², Large (>1 m²)

Expand to show TLE details & history
Last TLE update: 13 hours ago

TLE from 13 hours ago
0 SPACEMOBILE-SSR04 DEB
1 62372U 24163J   25288.47008969  .00017375  00000-0  59116-3 0  9992
2 62372  52.9903 341.6345 0006530 105.2851 254.8869 15.30524330 57350
Epoch: 2025-10-15T11:16Z
TLE epoch observation values (Epoch: 2025-10-15T11:16:55.749Z)
Latitude
-0.00008°
Longitude
148.15845°
Altitude
476.298 km
Speed
7.628 km/s
True Right ascension
22h 46m 32s
True Declination
0° 00' 00"
Sunlit
Object was in full shadow at epoch
Visualization orbit readout
Latitude
Unknown
Longitude
Unknown
Altitude
Unknown
Speed
Unknown
Apparent Right ascension
Unknown
Apparent Declination
Unknown
Sunlit
N/A
Visualization observer readout
Local Sidereal Time
18:36:34
Azimuth
Unknown
Elevation
Unknown
Doppler factor
Unknown
Orbital elements
Apogee altitude
479.006 km
Perigee altitude
470.056 km
Semi-major axis
6,852.668 km
Eccentricity
0.00065
Inclination
52.9903°
RAAN
341.6345°
Arg. of periapsis
105.2851°
True anomaly
254.81468°
Mean anomaly
254.8869°
Eccentric anomaly
254.85079°
Mean motion
3.82608 °/min
Orbital period
94.09 mins
BSTAR
0.00059116
Loading maneuver chart data...
Computing Atmospheric mass density...
Loading historical data...
Loading historical data...
Loading historical data...
Loading historical data...
Loading historical data...
Loading historical data...
Loading historical data...

Documentation

Showing up to 5 results
|